Regional Weather Roundup
Issued by NWS

Home | Current Version | Previous Version | Text Only | Print | Product List | Glossary On
Versions: 1 2 3 4 5 6 7 8 9 10 11 12 13 14 15 16 17 18 19 20 21 22 23 24 25 26 27 28 29 30 31 32 33 34 35 36 37 38 39 40 41 42 43 44 45 46 47 48 49 50
000
ASUS42 KFFC 271810
RWRGA
WEATHER ROUNDUP FOR GEORGIA
NATIONAL WEATHER SERVICE PEACHTREE CITY GA
100 PM EST MON FEB 27 2017

NOTE: "FAIR" INDICATES FEW OR NO CLOUDS BELOW 12,000 FEET WITH NO
SIGNIFICANT WEATHER AND/OR OBSTRUCTIONS TO VISIBILITY.

* = USE WITH CAUTION. THE STATIONS MARKED WITH AN ASTERISK MAY NOT
REPORT WEATHER SUCH AS PRECIPITATION, FOG, OR THUNDER AND ARE NOT
QUALITY CONTROLLED BY NWS.

THE REMARK "TC" DENOTES TEMPERATURE READING IN DEGREES CELSIUS.

GAZ001>058-271900-
NORTH GEORGIA

CITY           SKY/WX    TMP DP  RH WIND       PRES   REMARKS
ATLANTA        CLOUDY    56  33  42 N8        30.35R
6HR MIN TEMP:  47; 6HR MAX TEMP:  57; 6HR PCP: TRACE;

ATHENS         CLOUDY    62  37  39 E7        30.33F
6HR MIN TEMP:  38; 6HR MAX TEMP:  62;

CHAMBLEE       CLOUDY    54  29  38 NE5       30.35F
6HR MIN TEMP:  47; 6HR MAX TEMP:  56;

PEACHTREE CITY CLOUDY    58  37  45 N7        30.34S
6HR MIN TEMP:  39; 6HR MAX TEMP:  58;

ROME           LGT RAIN  48  38  68 E7G20     30.26F
6HR MIN TEMP:  42; 6HR MAX TEMP:  52; 6HR PCP:  0.21;

WEST ATLANTA   CLOUDY    56  29  35 N9        30.35F
6HR MIN TEMP:  44; 6HR MAX TEMP:  57;

GAINESVILLE    CLOUDY    55  29  36 NE6       30.36S
6HR MIN TEMP:  44; 6HR MAX TEMP:  55;

CARTERSVILLE   LGT RAIN  51  35  54 E5        30.34F
6HR MIN TEMP:  46; 6HR MAX TEMP:  54; 6HR PCP: TRACE;



CITY           SKY/WX    TMP DP  RH WIND       PRES   REMARKS
DALTON*        CLOUDY    45  41  87 CALM      30.29F
LAWRENCEVILLE* PTSUNNY   55  32  41 NW6       30.36R
MARIETTA       CLOUDY    54  28  37 N7        30.35R
KENNESAW*      CLOUDY    52  28  40 NE5       30.38S
CANTON*        DRIZZLE   52  23  32 CALM      30.38R
$$

GAZ059>098-102>109-271900-
CENTRAL GEORGIA

CITY           SKY/WX    TMP DP  RH WIND       PRES   REMARKS
AUGUSTA-BUSH   MOSUNNY   70  47  43 SE7       30.32F
6HR MIN TEMP:  36; 6HR MAX TEMP:  71;

AUGUSTA-DANIEL MOSUNNY   68  44  42 SE9G16    30.34F
6HR MIN TEMP:  45; 6HR MAX TEMP:  68;

COLUMBUS       CLOUDY    66  48  52 S7        30.26R
6HR MIN TEMP:  46; 6HR MAX TEMP:  67;

MACON          PTSUNNY   66  49  54 SE10      30.27F
6HR MIN TEMP:  46; 6HR MAX TEMP:  66;

ROBINS AFB     PTSUNNY   68  50  52 SE10      30.26F


CITY           SKY/WX    TMP DP  RH WIND       PRES   REMARKS
LAGRANGE*      CLOUDY    60  43  54 N9        30.31S
SYLVANIA*      MOSUNNY  N/A N/A N/A SE10      30.32F
MILLEDGEVILLE* PTSUNNY   64  50  59 CALM      30.30S
$$

GAZ099>101-110>166-271900-
SOUTH GEORGIA

CITY           SKY/WX    TMP DP  RH WIND       PRES   REMARKS
SAVANNAH       PTSUNNY   76  53  44 SE18G24   30.31F
6HR MIN TEMP:  47; 6HR MAX TEMP:  76;

VALDOSTA       MOSUNNY   76  56  49 MISG      30.24F
6HR MIN TEMP:  44; 6HR MAX TEMP:  76;

ALMA           SUNNY     77  53  43 S12G20    30.25F
6HR MIN TEMP:  47; 6HR MAX TEMP:  77;

ST SIMONS      CLOUDY    73  59  61 SE8       30.29F
6HR MIN TEMP:  61; 6HR MAX TEMP:  73;

FT STEWART     CLOUDY    74  55  50 SE10      30.27F
ALBANY         CLOUDY    75  53  46 S13       30.25F
HUNTER AFB     MOSUNNY   74  60  60 SE15G23   30.28F
MOODY AFB      PTSUNNY   77  55  46 S10       30.23F
BRUNSWICK      CLOUDY    73  61  64 SE14G21   30.30F


CITY           SKY/WX    TMP DP  RH WIND       PRES   REMARKS
BAINBRIDGE*    PTSUNNY   77  59  53 S9G17     30.23F
MOULTRIE*      CLOUDY    75  54  46 SW8       30.25F
VIDALIA*       SUNNY     73  59  60 SE6       30.29F
WAYCROSS*      MOSUNNY   80  60  49 SE10      30.26F
DOUGLAS*       SUNNY     75  50  41 SE12      30.27F
$$



USA.gov is the U.S. government's official web portal to all federal, state and local government web resources and services.